Temp
-7 -7 -7 -7 -7 -7 -7 -8 -8 -8 -8 -8 -9 -8 -9 -9 -9 -10 -9 -9 -10 -10 -10 -10 -9 -9 -9 -8 -8 -8 -8 -8 -8 -8 -9 -8 -9 -9 -8 -8 -8 -7 -7 -7 -8 -8 -7 -7 -7
-8 -7 -7 -7 -7 -7 -7 -8 -9 -9 -9 -9 -9 -9 -9 -10 -10 -10 -10 -10 -10 -10 -10 -10 -9 -9 -9 -8 -8 -8 -8 -8 -8 -9 -9 -9 -9 -9 -9 -9 -9 -8 -8 -8 -8 -8 -8 -7 -7
-8 -8 -7 -7 -7 -8 -8 -9 -9 -9 -9 -10 -10 -10 -9 -10 -9 -10 -10 -10 -10 -10 -11 -10 -10 -9 -9 -8 -9 -9 -9 -9 -10 -10 -10 -10 -10 -10 -10 -10 -10 -9 -9 -9 -8 -8 -8 -8 -7
-8 -8 -8 -8 -8 -8 -8 -9 -9 -9 -9 -10 -10 -10 -10 -10 -10 -10 -10 -10 -10 -10 -11 -10 -10 -9 -8 -9 -10 -10 -10 -9 -10 -10 -10 -10 -10 -10 -10 -10 -10 -10 -9 -9 -8 -8 -8 -8 -7
-9 -9 -9 -8 -8 -8 -8 -9 -9 -10 -9 -10 -10 -10 -10 -10 -10 -11 -11 -11 -11 -11 -11 -11 -10 -10 -10 -10 -10 -10 -10 -10 -10 -10 -10 -10 -10 -10 -10 -10 -10 -10 -9 -9 -9 -9 -8 -8 -8
-9 -9 -9 -9 -9 -9 -9 -10 -10 -10 -10 -11 -10 -11 -10 -11 -11 -11 -11 -11 -11 -11 -11 -11 -11 -11 -10 -11 -11 -11 -10 -10 -10 -10 -10 -10 -10 -10 -10 -9 -9 -10 -10 -9 -9 -9 -8 -8 -7
-10 -10 -10 -9 -9 -9 -10 -10 -10 -11 -11 -11 -11 -11 -11 -12 -11 -11 -11 -11 -11 -12 -12 -12 -12 -11 -11 -11 -11 -11 -11 -11 -10 -11 -11 -11 -11 -11 -10 -10 -10 -10 -10 -9 -9 -9 -9 -8 -8
-10 -10 -10 -9 -9 -9 -11 -11 -11 -11 -11 -11 -11 -11 -11 -11 -11 -11 -11 -10 -11 -12 -12 -13 -12 -11 -11 -12 -11 -11 -12 -11 -11 -12 -12 -11 -11 -11 -11 -11 -10 -10 -9 -9 -9 -9 -9 -9 -9
-11 -10 -9 -9 -10 -10 -10 -11 -11 -10 -10 -11 -11 -11 -12 -12 -11 -11 -11 -11 -12 -12 -13 -13 -12 -12 -12 -12 -12 -12 -12 -12 -12 -12 -12 -12 -11 -11 -11 -11 -11 -10 -10 -10 -10 -10 -10 -10 -10
-10 -10 -9 -10 -11 -11 -11 -11 -10 -10 -10 -10 -11 -12 -12 -11 -11 -12 -12 -12 -12 -12 -13 -13 -12 -12 -12 -12 -12 -12 -12 -12 -12 -12 -12 -12 -12 -12 -11 -11 -11 -11 -11 -11 -11 -11 -11 -10 -10
-10 -9 -10 -10 -11 -11 -11 -10 -11 -10 -10 -10 -11 -12 -12 -12 -12 -12 -12 -12 -12 -12 -13 -13 -12 -12 -12 -12 -12 -12 -12 -12 -12 -13 -12 -12 -12 -12 -11 -11 -11 -11 -11 -11 -11 -11 -11 -11 -10
-11 -10 -11 -10 -11 -11 -11 -11 -9 -11 -10 -11 -12 -12 -11 -11 -11 -12 -12 -12 -12 -12 -12 -13 -13 -12 -12 -12 -12 -13 -13 -13 -13 -12 -12 -12 -12 -12 -12 -12 -12 -11 -11 -11 -12 -12 -11 -11 -11
-10 -10 -11 -11 -11 -12 -11 -10 -9 -10 -10 -12 -12 -12 -11 -10 -10 -11 -12 -12 -11 -11 -13 -13 -12 -12 -13 -13 -12 -13 -13 -13 -12 -12 -12 -12 -12 -12 -12 -12 -12 -12 -12 -12 -12 -11 -11 -11 -11
-11 -10 -11 -11 -11 -12 -11 -10 -10 -10 -11 -12 -12 -11 -11 -10 -10 -10 -11 -12 -11 -11 -11 -12 -13 -13 -13 -13 -13 -13 -13 -13 -12 -12 -13 -13 -12 -12 -12 -12 -12 -12 -12 -12 -12 -11 -11 -11 -11
-12 -11 -11 -11 -11 -11 -12 -9 -10 -11 -11 -11 -11 -11 -11 -10 -10 -9 -11 -11 -11 -10 -11 -12 -14 -13 -13 -13 -13 -13 -13 -13 -12 -13 -13 -12 -12 -12 -12 -12 -12 -12 -12 -12 -12 -12 -12 -12 -12
-12 -11 -11 -10 -11 -11 -12 -8 -10 -11 -11 -12 -11 -11 -10 -10 -10 -10 -11 -11 -10 -10 -11 -12 -13 -13 -14 -14 -13 -13 -13 -13 -13 -13 -13 -13 -13 -12 -12 -12 -12 -13 -12 -13 -13 -12 -12 -12 -13
-11 -10 -10 -11 -10 -12 -12 -10 -10 -11 -11 -12 -12 -11 -10 -10 -10 -11 -11 -10 -9 -10 -11 -11 -12 -13 -14 -14 -13 -13 -13 -13 -13 -13 -13 -13 -13 -13 -12 -12 -12 -13 -13 -13 -13 -13 -13 -13 -13
-9 -10 -10 -10 -11 -12 -12 -10 -11 -11 -11 -12 -12 -11 -10 -11 -10 -11 -10 -10 -10 -11 -11 -12 -13 -13 -14 -14 -13 -13 -13 -13 -13 -13 -13 -13 -13 -13 -13 -13 -13 -13 -13 -13 -13 -13 -14 -14 -14
-12 -11 -11 -11 -11 -12 -12 -12 -11 -11 -11 -12 -11 -10 -11 -11 -11 -11 -10 -10 -11 -11 -12 -12 -13 -13 -14 -14 -13 -13 -13 -13 -13 -13 -13 -13 -13 -13 -13 -13 -13 -13 -13 -14 -14 -14 -14 -15 -15
-12 -12 -11 -11 -12 -12 -12 -11 -11 -11 -11 -12 -11 -10 -11 -11 -11 -10 -10 -10 -11 -11 -12 -13 -13 -14 -14 -14 -13 -12 -12 -13 -13 -13 -13 -13 -13 -14 -14 -14 -14 -14 -14 -14 -15 -15 -16 -16 -15
-12 -11 -12 -13 -13 -13 -13 -11 -11 -11 -11 -11 -11 -10 -11 -11 -11 -10 -10 -10 -10 -11 -13 -12 -13 -13 -14 -13 -12 -12 -12 -13 -13 -13 -13 -13 -13 -14 -14 -14 -14 -14 -15 -15 -15 -16 -16 -16 -15
-12 -13 -13 -13 -13 -12 -13 -11 -10 -10 -11 -11 -11 -11 -11 -11 -10 -10 -10 -10 -10 -11 -12 -12 -13 -13 -13 -12 -12 -12 -12 -13 -12 -12 -12 -13 -14 -14 -14 -14 -15 -15 -15 -15 -15 -15 -16 -16 -16
-12 -13 -13 -13 -13 -12 -11 -11 -8 -10 -11 -10 -11 -11 -12 -10 -10 -9 -10 -10 -10 -11 -11 -12 -12 -12 -12 -12 -12 -12 -12 -12 -12 -12 -13 -13 -13 -14 -14 -15 -15 -15 -15 -15 -15 -15 -16 -16 -16
-12 -12 -12 -13 -13 -11 -11 -10 -8 -10 -10 -11 -11 -11 -10 -10 -9 -10 -10 -10 -11 -11 -11 -11 -12 -12 -12 -12 -12 -12 -12 -12 -12 -13 -13 -14 -14 -14 -14 -15 -15 -15 -15 -14 -15 -15 -15 -15 -15
-12 -12 -13 -12 -13 -10 -11 -11 -10 -10 -10 -10 -10 -10 -10 -10 -10 -10 -10 -11 -11 -11 -11 -11 -11 -12 -12 -12 -12 -12 -12 -12 -12 -13 -13 -13 -14 -14 -14 -14 -14 -14 -14 -14 -14 -14 -15 -14 -15
-12 -12 -12 -12 -12 -12 -11 -10 -10 -11 -11 -10 -10 -11 -10 -10 -10 -10 -11 -11 -11 -11 -11 -11 -12 -12 -11 -12 -12 -12 -12 -12 -13 -13 -13 -13 -14 -14 -14 -14 -14 -14 -14 -14 -14 -14 -14 -14 -14
-11 -11 -12 -12 -12 -12 -11 -11 -10 -11 -10 -11 -11 -11 -11 -11 -10 -11 -10 -11 -11 -11 -11 -12 -12 -11 -12 -12 -12 -12 -12 -13 -13 -13 -13 -13 -14 -14 -14 -14 -14 -14 -14 -14 -14 -14 -14 -14 -14
-12 -12 -12 -12 -12 -11 -10 -10 -10 -11 -11 -11 -11 -11 -11 -10 -11 -11 -11 -11 -11 -11 -11 -12 -12 -12 -12 -12 -12 -13 -12 -13 -13 -13 -13 -13 -13 -14 -14 -13 -13 -14 -13 -13 -14 -13 -13 -14 -14
-11 -11 -11 -12 -12 -11 -10 -10 -11 -11 -12 -11 -11 -11 -10 -11 -11 -11 -11 -11 -11 -11 -11 -12 -12 -12 -12 -12 -12 -12 -13 -12 -12 -13 -13 -13 -13 -13 -14 -13 -13 -14 -14 -13 -13 -13 -13 -13 -13
-12 -12 -12 -12 -11 -11 -11 -10 -10 -11 -11 -12 -12 -11 -10 -11 -11 -11 -10 -11 -11 -11 -12 -12 -12 -12 -12 -12 -12 -12 -13 -12 -12 -12 -12 -13 -13 -13 -13 -13 -13 -14 -14 -13 -13 -13 -13 -13 -13
Height
5896 5897 5898 5900 5902 5900 5899 5899 5897 5897 5897 5896 5895 5895 5894 5892 5889 5888 5886 5883 5879 5878 5873 5869 5866 5864 5861 5859 5858 5856 5854 5852 5850 5847 5845 5843 5842 5842 5842 5842 5843 5844 5844 5845 5847 5848 5849 5849 5850
5893 5894 5895 5896 5899 5897 5897 5894 5894 5894 5894 5893 5891 5892 5892 5890 5886 5884 5883 5879 5876 5874 5868 5863 5862 5859 5857 5854 5852 5850 5848 5846 5844 5841 5839 5837 5836 5834 5834 5835 5836 5836 5836 5836 5837 5840 5841 5842 5844
5889 5891 5893 5893 5895 5894 5894 5890 5890 5890 5890 5889 5890 5889 5889 5886 5884 5881 5878 5875 5872 5869 5864 5859 5856 5854 5853 5850 5847 5844 5841 5839 5838 5836 5833 5831 5830 5828 5828 5828 5828 5829 5830 5829 5829 5831 5834 5835 5837
5886 5888 5889 5890 5892 5891 5891 5887 5887 5887 5887 5885 5884 5884 5883 5882 5878 5877 5874 5870 5867 5864 5860 5856 5851 5850 5849 5846 5842 5838 5836 5834 5831 5829 5827 5826 5824 5823 5822 5823 5823 5823 5823 5823 5822 5823 5825 5828 5830
5881 5883 5883 5886 5889 5888 5887 5884 5881 5881 5884 5882 5880 5877 5878 5876 5873 5871 5868 5865 5862 5859 5855 5851 5847 5844 5843 5841 5837 5834 5831 5828 5825 5823 5820 5818 5817 5816 5816 5816 5816 5816 5816 5816 5816 5816 5818 5820 5823
5876 5876 5878 5881 5884 5884 5882 5878 5877 5877 5876 5874 5873 5871 5873 5870 5865 5863 5861 5858 5856 5854 5850 5846 5842 5839 5837 5835 5832 5828 5825 5822 5819 5816 5813 5811 5809 5808 5807 5807 5807 5808 5808 5808 5809 5808 5809 5811 5813
5870 5870 5872 5875 5880 5880 5880 5876 5873 5872 5870 5868 5867 5865 5866 5863 5858 5856 5855 5853 5851 5848 5844 5840 5836 5834 5830 5828 5826 5822 5819 5817 5814 5811 5807 5804 5802 5800 5798 5797 5797 5798 5799 5800 5800 5799 5800 5802 5804
5864 5863 5866 5871 5873 5876 5874 5871 5868 5867 5867 5865 5863 5860 5859 5856 5852 5851 5848 5846 5845 5842 5839 5835 5831 5828 5825 5822 5820 5817 5813 5810 5807 5804 5800 5796 5795 5792 5790 5788 5788 5789 5789 5789 5789 5790 5791 5793 5795
5856 5853 5860 5867 5867 5870 5868 5865 5862 5861 5861 5862 5859 5857 5851 5847 5844 5844 5842 5841 5839 5836 5833 5830 5826 5823 5821 5817 5814 5810 5807 5803 5801 5796 5792 5788 5787 5785 5782 5780 5779 5779 5779 5779 5779 5780 5782 5784 5786
5846 5846 5853 5863 5860 5859 5858 5858 5857 5854 5855 5859 5853 5851 5844 5839 5837 5836 5836 5835 5833 5830 5827 5825 5821 5819 5815 5813 5809 5805 5801 5797 5793 5789 5785 5782 5780 5778 5774 5771 5769 5769 5769 5770 5771 5771 5772 5775 5777
5839 5837 5850 5852 5853 5847 5850 5850 5848 5848 5851 5854 5846 5843 5838 5832 5831 5829 5830 5829 5826 5824 5822 5820 5816 5813 5810 5808 5805 5800 5795 5790 5786 5782 5778 5776 5773 5770 5766 5763 5761 5759 5759 5758 5760 5762 5764 5765 5767
5828 5831 5836 5844 5843 5837 5841 5841 5844 5840 5847 5844 5838 5832 5827 5826 5823 5823 5824 5821 5819 5818 5816 5814 5811 5808 5805 5803 5799 5794 5788 5784 5780 5776 5773 5769 5766 5762 5760 5757 5754 5752 5750 5751 5751 5752 5754 5756 5757
5815 5821 5827 5830 5831 5830 5832 5834 5833 5835 5842 5834 5829 5825 5822 5820 5818 5818 5817 5816 5814 5811 5809 5807 5806 5804 5800 5797 5792 5787 5782 5778 5774 5771 5767 5763 5759 5755 5752 5749 5747 5745 5744 5744 5743 5743 5744 5744 5745
5809 5807 5812 5814 5818 5826 5822 5826 5819 5833 5832 5825 5822 5818 5816 5815 5814 5812 5811 5811 5809 5806 5803 5800 5801 5798 5795 5790 5785 5781 5777 5772 5768 5764 5761 5757 5752 5748 5744 5741 5738 5737 5736 5735 5734 5733 5734 5735 5735
5796 5796 5799 5803 5812 5814 5818 5815 5816 5824 5821 5815 5815 5810 5810 5810 5808 5807 5805 5805 5803 5801 5798 5796 5795 5792 5789 5785 5779 5775 5770 5766 5762 5758 5754 5750 5745 5741 5737 5733 5730 5729 5726 5725 5725 5724 5725 5725 5726
5786 5787 5787 5796 5803 5806 5806 5804 5812 5817 5811 5809 5808 5804 5805 5804 5803 5802 5801 5799 5798 5796 5792 5790 5788 5787 5783 5779 5773 5769 5764 5760 5756 5752 5747 5742 5739 5734 5729 5726 5723 5721 5719 5718 5717 5716 5716 5716 5718
5772 5775 5780 5787 5795 5796 5797 5794 5803 5806 5801 5801 5801 5800 5798 5798 5798 5797 5796 5795 5795 5791 5787 5785 5782 5780 5777 5773 5768 5763 5759 5754 5750 5746 5741 5736 5733 5727 5723 5719 5716 5714 5712 5710 5709 5708 5708 5708 5709
5765 5769 5774 5777 5785 5787 5788 5783 5787 5795 5792 5793 5794 5794 5793 5793 5794 5792 5792 5791 5789 5786 5783 5781 5777 5775 5772 5767 5762 5758 5753 5749 5744 5739 5735 5731 5726 5721 5717 5713 5709 5706 5703 5701 5699 5699 5700 5701 5701
5762 5763 5765 5770 5776 5776 5777 5772 5774 5783 5784 5784 5786 5788 5788 5789 5789 5787 5787 5785 5783 5780 5779 5775 5772 5770 5766 5762 5757 5752 5748 5743 5738 5734 5729 5726 5720 5715 5711 5706 5702 5697 5693 5691 5690 5691 5691 5692 5692
5752 5753 5755 5760 5763 5760 5761 5761 5764 5771 5775 5776 5779 5782 5783 5784 5782 5782 5781 5779 5777 5775 5773 5770 5767 5764 5760 5756 5751 5748 5743 5737 5733 5728 5724 5720 5715 5710 5704 5699 5695 5690 5687 5685 5684 5684 5684 5686 5688
5742 5745 5751 5749 5752 5749 5748 5747 5753 5761 5765 5769 5773 5775 5778 5777 5777 5777 5776 5774 5772 5771 5767 5765 5762 5758 5755 5751 5747 5742 5738 5732 5728 5724 5719 5714 5709 5704 5698 5693 5689 5685 5683 5681 5679 5678 5680 5682 5685
5732 5743 5741 5740 5739 5740 5738 5730 5747 5756 5757 5763 5768 5769 5772 5770 5772 5772 5771 5770 5767 5764 5761 5760 5756 5752 5750 5746 5742 5738 5732 5728 5724 5720 5714 5709 5703 5698 5693 5689 5685 5683 5681 5679 5677 5677 5679 5679 5683
5729 5732 5732 5731 5729 5729 5733 5727 5744 5751 5755 5761 5761 5764 5764 5766 5765 5766 5767 5765 5763 5759 5756 5753 5750 5748 5745 5741 5737 5733 5728 5724 5720 5715 5710 5704 5698 5694 5689 5686 5684 5682 5680 5679 5679 5680 5680 5681 5683
5718 5723 5722 5722 5723 5720 5729 5726 5737 5747 5749 5753 5755 5758 5760 5760 5761 5762 5761 5759 5756 5753 5751 5748 5746 5744 5740 5737 5733 5728 5724 5720 5715 5711 5706 5699 5695 5691 5688 5686 5684 5684 5682 5681 5683 5684 5685 5686 5688
5704 5711 5712 5717 5716 5718 5725 5721 5738 5742 5745 5747 5750 5754 5755 5756 5758 5758 5756 5753 5751 5749 5746 5745 5742 5739 5736 5733 5728 5725 5721 5716 5712 5707 5701 5696 5693 5690 5688 5687 5686 5686 5686 5686 5686 5688 5689 5691 5693
5700 5709 5710 5713 5714 5718 5719 5720 5736 5737 5740 5743 5747 5750 5750 5752 5754 5754 5751 5748 5746 5744 5743 5740 5738 5736 5733 5728 5725 5722 5717 5714 5710 5704 5699 5696 5694 5691 5689 5688 5689 5689 5690 5690 5691 5692 5694 5696 5698
5693 5694 5709 5707 5707 5714 5712 5725 5732 5734 5737 5740 5745 5745 5748 5750 5750 5749 5746 5744 5743 5740 5739 5737 5735 5733 5729 5726 5723 5719 5716 5712 5707 5703 5700 5698 5695 5693 5691 5691 5692 5693 5694 5694 5695 5697 5699 5701 5702
5683 5694 5694 5695 5699 5706 5712 5721 5728 5731 5734 5739 5741 5742 5744 5747 5746 5744 5742 5741 5739 5738 5736 5735 5733 5729 5726 5724 5721 5718 5715 5710 5706 5703 5701 5700 5697 5696 5694 5695 5696 5697 5697 5698 5700 5702 5704 5705 5705
5671 5676 5682 5689 5694 5700 5711 5719 5725 5727 5730 5736 5737 5739 5742 5742 5742 5739 5738 5738 5736 5735 5733 5732 5730 5727 5725 5722 5720 5717 5714 5709 5705 5703 5701 5701 5699 5698 5697 5698 5699 5700 5701 5703 5705 5706 5708 5709 5710
5668 5674 5682 5686 5694 5702 5710 5717 5719 5723 5728 5733 5735 5737 5739 5739 5738 5736 5735 5735 5734 5732 5731 5730 5727 5726 5724 5721 5718 5716 5713 5709 5707 5704 5703 5702 5701 5700 5700 5701 5703 5705 5706 5707 5708 5710 5712 5713 5714
Wind_Speed
14 15 14 16 14 17 20 21 21 22 18 17 18 18 20 24 27 28 30 31 32 31 37 38 38 38 37 36 34 34 34 32 32 35 37 38 39 36 33 33 33 34 33 33 32 32 35 33 31
15 19 22 22 19 19 25 24 22 24 22 20 22 23 22 24 25 27 29 32 35 34 38 39 39 38 37 37 37 35 35 34 32 29 29 33 34 37 36 34 34 34 35 35 34 33 34 33 32
21 21 23 22 22 25 25 27 26 27 27 25 25 26 24 26 25 26 29 33 33 34 37 40 40 36 35 38 37 39 38 31 28 27 26 25 28 31 34 35 34 34 35 37 37 36 34 34 34
24 26 26 26 26 25 26 29 29 30 32 33 35 33 30 26 28 29 32 36 36 37 36 38 40 37 37 37 38 39 37 32 30 29 29 26 28 29 29 32 34 33 35 37 39 38 37 35 35
28 28 30 27 25 27 28 29 32 35 35 36 35 31 30 31 32 33 35 34 34 34 33 34 39 41 38 37 38 34 33 32 32 30 29 27 26 26 29 30 32 32 33 35 35 36 36 36 35
29 27 29 26 25 27 28 30 35 37 39 37 37 35 34 33 37 39 39 42 42 34 31 33 39 40 39 38 34 33 34 34 34 35 35 35 35 34 32 31 31 32 31 31 34 35 35 36 37
32 34 32 30 29 30 28 35 36 37 38 39 37 38 37 36 38 41 43 44 45 34 34 35 38 39 40 38 35 35 36 36 37 39 40 41 41 40 38 37 36 34 33 33 33 33 35 37 38
37 39 38 33 34 31 28 29 36 39 36 35 37 41 39 37 39 43 44 41 35 30 33 34 36 39 40 39 36 36 39 39 40 41 44 43 40 38 38 36 35 36 36 35 34 34 34 36 36
44 47 40 34 31 29 31 32 36 37 33 31 34 36 44 47 49 45 41 37 33 31 29 32 36 40 39 38 39 39 39 39 40 41 40 37 38 35 34 34 34 34 34 34 34 33 32 31 31
51 51 41 29 27 32 36 40 38 38 36 23 37 41 49 51 50 45 38 35 36 29 30 31 36 39 40 39 40 39 40 39 37 38 38 34 33 33 33 33 33 33 32 32 32 33 33 34 34
51 49 40 35 29 39 37 38 39 37 31 28 39 41 43 44 41 38 32 33 36 31 29 31 36 39 41 41 37 39 37 37 38 34 31 31 30 31 31 32 32 31 30 30 32 33 36 37 37
51 50 49 41 36 43 36 38 34 39 26 33 38 44 45 40 35 32 28 33 34 29 28 31 35 38 43 41 37 35 36 37 34 29 28 30 30 32 31 31 28 28 30 31 30 30 31 33 34
52 51 49 50 40 41 41 36 35 36 23 37 42 41 41 36 33 27 30 35 33 31 27 32 36 39 37 37 36 34 35 35 32 29 29 30 32 33 32 30 28 27 26 27 29 32 33 34 33
47 49 50 52 49 38 42 34 42 30 28 38 41 42 41 38 32 28 30 38 38 29 31 33 37 32 30 32 34 34 35 34 33 30 30 29 33 31 30 28 27 27 28 27 27 31 31 30 30
51 53 52 52 47 44 42 35 39 31 36 41 42 44 42 38 33 30 30 36 33 30 25 22 16 24 26 32 34 33 34 35 32 31 29 33 32 31 30 31 30 30 30 28 30 27 27 26 27
56 58 60 53 50 48 48 38 40 31 37 36 39 44 36 30 28 30 28 30 30 28 21 22 19 23 29 35 35 34 35 32 31 30 33 31 30 31 28 27 29 28 30 28 28 28 26 27 27
64 62 61 57 52 54 52 47 39 33 36 35 36 37 30 25 27 28 28 31 29 27 24 27 20 26 33 36 35 34 33 31 29 30 32 31 31 29 28 26 26 25 26 30 31 29 28 28 28
57 58 55 55 55 60 57 53 51 37 39 34 33 33 29 27 29 31 30 28 26 26 28 26 22 30 32 38 37 35 31 31 28 31 33 32 31 29 31 31 31 31 32 33 31 28 26 27 28
59 60 58 58 54 54 51 53 51 36 35 33 31 29 28 24 27 30 30 26 26 27 29 21 25 25 31 40 37 33 31 30 29 32 32 32 31 33 33 32 29 33 30 31 27 24 25 25 25
52 53 53 49 45 47 48 48 46 37 35 33 28 28 26 27 28 28 25 25 24 27 25 23 25 29 33 37 33 31 29 29 31 32 31 33 33 34 34 29 28 24 24 19 21 21 19 18 16
41 39 35 37 33 41 45 50 47 38 36 33 26 28 23 25 27 28 24 25 24 28 22 24 24 28 32 32 30 27 28 30 31 29 31 33 33 33 30 29 23 18 16 15 14 14 14 13 16
42 25 23 25 29 39 42 52 41 36 37 32 23 26 22 27 24 23 26 24 25 22 21 22 23 27 28 28 26 25 28 29 26 28 32 31 32 29 28 22 14 11 9 3 2 5 7 11 18
30 27 25 27 34 40 39 45 33 29 24 23 24 25 26 22 24 24 21 25 24 18 18 18 21 23 24 25 24 25 28 27 27 31 27 29 27 26 19 10 6 3 2 7 9 10 12 16 20
38 35 34 34 37 41 34 39 30 14 22 19 20 26 20 21 21 18 18 22 14 16 16 16 19 20 22 22 23 25 27 27 27 28 29 26 24 15 7 3 3 6 12 16 13 12 15 18 22
47 43 44 39 38 34 27 37 13 12 6 17 22 21 20 19 16 15 17 15 15 16 16 17 17 20 20 22 23 26 26 24 23 26 24 20 13 7 3 3 7 8 10 12 12 14 17 20 22
47 40 42 35 31 29 25 32 22 13 10 15 17 18 21 18 13 13 14 10 12 12 13 15 18 18 20 19 22 24 20 19 21 22 17 15 6 5 6 7 8 9 10 15 16 19 20 21 21
42 41 31 33 32 21 28 18 13 14 18 20 12 18 16 16 12 12 7 9 10 8 12 14 14 17 16 17 22 18 16 18 19 16 14 6 8 9 8 11 11 13 18 18 18 16 17 16 13
43 37 39 38 34 27 25 21 13 18 20 18 18 18 16 13 9 8 8 8 9 9 13 12 13 15 13 16 19 15 16 17 16 14 10 3 9 8 12 12 12 18 21 18 17 17 14 10 12
50 47 45 39 36 30 22 19 11 17 20 14 19 21 16 8 8 6 8 9 9 8 11 9 12 13 11 16 17 15 16 17 15 12 3 5 8 9 10 11 14 17 18 17 16 15 14 11 12
45 44 41 38 33 28 18 13 13 20 22 18 19 22 15 7 6 9 6 8 7 9 6 8 11 10 12 16 14 13 15 12 11 8 4 7 9 9 10 11 12 18 14 15 17 16 14 14 11
Wind_Direction
259 270 279 286 293 301 307 311 319 328 323 319 316 312 310 312 314 308 307 295 296 296 298 297 296 298 298 300 302 301 300 298 296 290 282 280 278 276 272 267 262 259 257 255 246 241 244 245 239
240 253 251 271 278 288 290 299 315 320 320 316 317 317 309 304 298 301 301 290 288 298 302 302 301 300 302 303 302 301 298 297 295 291 289 281 276 270 267 265 262 259 258 256 256 249 241 243 244
239 248 250 253 262 272 284 292 304 314 314 312 310 308 303 294 292 303 305 297 303 300 304 303 302 301 304 305 304 302 299 294 295 293 294 289 279 272 271 268 266 265 264 263 257 254 247 244 245
248 248 249 257 266 272 276 286 295 304 308 307 313 307 306 304 296 296 304 311 304 300 299 298 299 302 302 306 306 303 299 299 298 288 284 288 284 280 273 272 270 269 267 265 262 259 253 248 247
249 247 251 254 265 269 278 283 293 298 301 305 305 302 313 313 305 299 301 307 309 299 294 298 299 301 305 307 306 302 297 295 299 295 293 291 292 284 278 277 276 273 270 268 261 258 254 252 251
246 247 251 253 259 268 277 284 292 297 301 301 304 305 314 313 303 299 299 304 310 301 297 298 298 302 306 308 305 302 298 297 301 303 302 302 303 303 299 291 283 281 281 277 266 261 258 255 255
250 250 251 252 258 267 276 283 287 293 297 301 300 306 312 307 300 298 298 299 305 300 303 301 299 306 305 306 305 304 296 297 300 302 303 303 302 302 300 297 293 288 283 278 274 269 266 263 259
244 249 248 258 261 266 273 275 282 285 289 300 297 297 304 303 293 297 298 297 303 298 301 298 297 301 304 304 303 301 302 304 303 304 304 302 300 297 293 289 284 283 280 277 273 270 265 262 259
241 247 251 257 264 261 262 267 279 281 282 298 301 304 301 297 296 296 293 299 297 292 294 290 293 297 299 300 304 306 308 308 307 306 303 301 298 295 292 289 285 281 277 273 269 265 258 251 254
245 249 252 265 258 258 262 262 274 281 285 306 301 304 302 293 292 291 291 294 292 282 284 285 288 293 298 302 306 306 309 307 306 306 302 298 296 296 294 291 289 284 279 269 262 259 255 253 255
251 257 256 254 249 255 260 257 265 279 288 304 299 298 294 286 282 281 290 282 282 275 286 284 285 291 295 298 304 307 308 306 307 305 301 299 299 300 297 295 294 287 285 281 268 260 256 260 262
252 256 257 258 252 258 263 260 265 275 300 300 294 297 293 285 274 277 280 278 270 273 276 277 282 289 290 300 306 308 306 308 312 307 304 304 303 303 298 298 294 291 280 276 272 265 261 260 261
252 256 258 257 252 258 262 269 268 271 291 290 294 293 291 284 275 276 276 274 270 275 272 276 282 286 295 298 307 309 307 311 314 310 309 304 307 304 300 296 286 290 284 275 270 266 264 266 266
253 258 256 255 253 259 267 270 266 280 280 279 287 288 288 282 280 272 270 266 273 270 272 278 282 292 303 309 311 308 306 311 313 312 312 307 310 305 304 304 296 288 284 278 281 280 273 269 265
251 256 259 254 255 261 268 262 268 284 282 280 286 282 285 283 282 280 270 273 270 275 276 281 295 308 322 321 312 309 308 311 309 315 316 315 312 305 301 301 294 289 288 280 285 278 275 267 257
252 257 255 258 260 263 266 265 267 277 275 282 290 287 292 283 275 275 270 270 271 279 276 283 298 321 323 324 317 310 311 309 315 319 320 318 314 312 310 302 299 293 285 282 284 282 277 266 257
253 253 258 262 263 264 269 271 272 274 271 280 285 288 286 276 276 271 272 273 279 281 286 291 305 318 322 321 315 310 309 312 319 321 320 318 315 316 315 307 303 296 287 284 282 279 269 263 259
254 258 260 263 268 268 271 272 271 266 264 274 278 282 279 277 284 278 274 273 278 284 288 292 305 307 314 318 312 308 309 313 318 321 321 318 317 316 311 306 301 297 285 283 286 275 263 258 251
255 260 264 266 273 272 269 266 268 264 251 264 265 270 267 278 282 271 262 276 277 280 288 299 307 309 312 312 308 305 309 315 318 319 320 314 314 314 313 309 300 297 288 280 272 269 265 256 249
252 256 259 264 265 267 265 262 263 256 248 252 256 256 259 278 270 261 265 273 277 284 286 299 301 308 305 303 303 305 313 317 318 318 313 311 311 311 313 309 305 297 281 286 277 270 256 242 221
252 257 266 269 260 259 262 257 255 248 246 243 251 251 264 278 264 261 270 277 284 282 288 291 294 297 299 300 303 310 315 318 318 314 313 313 312 315 314 312 303 297 296 288 276 252 234 224 217
239 261 253 250 252 255 256 260 252 249 243 241 244 254 271 259 259 266 271 276 282 288 290 283 287 294 297 300 304 314 316 320 318 315 314 315 318 318 315 311 307 306 304 303 122 167 187 174 172
243 250 253 250 254 255 253 261 256 250 238 240 245 245 251 255 254 260 274 276 287 300 290 287 289 293 298 301 311 313 317 319 314 315 314 319 322 319 316 317 316 350 83 104 112 126 134 143 163
237 237 245 247 255 256 250 249 244 223 237 237 239 241 249 249 253 269 272 277 288 302 294 293 290 296 301 311 311 314 321 317 311 317 317 321 326 326 336 321 109 92 113 111 122 133 134 141 148
225 227 236 246 258 259 249 241 143 190 207 220 240 245 240 248 268 268 274 282 283 285 286 291 294 303 311 314 316 318 320 317 321 325 329 332 339 350 346 99 122 111 138 130 118 117 134 140 143
228 232 242 249 265 270 252 241 188 233 251 239 237 244 241 251 253 267 283 298 284 289 300 294 300 309 318 324 327 327 324 328 332 336 345 344 9 32 88 113 111 124 127 114 115 126 137 143 148
224 227 233 240 252 248 238 219 180 212 239 244 241 238 248 255 242 276 295 308 297 312 319 303 306 317 329 331 332 335 337 334 339 349 346 5 55 66 103 112 114 123 122 117 122 135 140 139 138
218 223 228 233 240 232 224 192 196 211 228 237 240 231 230 236 256 266 317 298 304 312 315 299 314 333 338 334 340 341 342 345 346 345 344 68 63 76 107 116 129 131 122 122 125 127 133 130 111
217 216 219 225 231 231 214 188 198 190 212 213 229 244 234 217 256 291 294 290 298 310 310 310 334 345 342 340 341 345 348 349 353 345 354 89 73 79 111 121 138 129 125 126 129 139 133 121 110
218 222 229 236 239 243 233 205 198 196 211 205 224 236 232 209 279 311 290 289 297 329 320 334 347 344 339 342 341 351 357 1 5 6 66 90 71 82 105 126 143 143 123 136 133 131 125 116 106